Regional Weather Roundup
Issued by NWS

Home | Current Version | Previous Version | Graphics & Text | Print | Product List | Glossary On
Versions: 1 2 3 4 5 6 7 8 9 10 11 12 13 14 15 16 17 18 19 20 21 22 23 24 25 26 27 28 29 30 31 32 33 34 35 36 37 38 39 40 41 42 43 44 45 46 47 48 49 50
000
ASUS43 KLOT 211812
RWRIL

ILLINOIS REGIONAL WEATHER ROUNDUP
NATIONAL WEATHER SERVICE CHICAGO/ROMEOVILLE IL
1200 PM CST TUE FEB 21 2017

NOTE: "FAIR" INDICATES FEW OR NO CLOUDS BELOW 12,000 FEET WITH NO
SIGNIFICANT WEATHER AND/OR OBSTRUCTIONS TO VISIBILITY.

* THESE STATIONS ARE NOT UNDER NWS QUALITY CONTROL. THEY ALSO MAY NOT
  REPORT WEATHER SUCH AS PRECIPITATION OR FOG.

ILZ001-002-007-009-015-016-024-211900-
NORTHWEST ILLINOIS

CITY           SKY/WX    TMP DP  RH WIND       PRES   REMARKS
MOLINE         MOSUNNY   62  44  51 CALM      29.94F
6HR MIN TEMP:  45; 6HR MAX TEMP:  63;

STERLING*      PTSUNNY   59  47  64 CALM      29.95
SAVANNA*       SUNNY     55  44  67 W5        29.95F
$$

ILZ003-004-008-010-011-017-018-211900-
NORTH CENTRAL ILLINOIS

CITY           SKY/WX    TMP DP  RH WIND       PRES   REMARKS
ROCKFORD       PTSUNNY   59  47  64 CALM      29.96F
6HR MIN TEMP:  49; 6HR MAX TEMP:  59; 6HR PCP: TRACE;

FREEPORT*      SUNNY     55  46  70 CALM      29.96F
ROCHELLE*      PTSUNNY   57  50  76 CALM      29.95F
DE KALB*       MOSUNNY   58  52  78 SW5       29.95F
PERU*          CLOUDY    58  55  90 SW5       29.96F FOG
$$

ILZ005-006-012>014-019>023-211900-
NORTHEAST ILLINOIS

CITY           SKY/WX    TMP DP  RH WIND       PRES   REMARKS
CHICAGO-OHARE  CLOUDY    62  54  74 SW12      29.93F
6HR MIN TEMP:  55; 6HR MAX TEMP:  63; 6HR PCP:  0.01;

CHICAGO-MIDWAY CLOUDY    61  55  81 W10       29.94F
6HR MIN TEMP:  54; 6HR MAX TEMP:  61; 6HR PCP:  0.05;

AURORA         CLOUDY    61  56  83 SW6       29.94F
6HR MIN TEMP:  52; 6HR MAX TEMP:  62; 6HR PCP:  0.01;

LANSING*       PTSUNNY   63  58  82 S10       29.94F
JOLIET*        CLOUDY    63  57  81 W5        29.95F
WAUKEGAN       CLOUDY    60  50  69 SW5       29.93S
6HR MIN TEMP:  52; 6HR MAX TEMP:  60;

DUPAGE AIRPORT CLOUDY    62  55  77 SW8       29.94S
6HR MIN TEMP:  53; 6HR MAX TEMP:  62; 6HR PCP:  0.01;

KANKAKEE*      PTSUNNY   62  57  85 CALM      29.95F
WHEELING       PTSUNNY   61  54  77 SW8       29.94F
6HR MIN TEMP:  53; 6HR MAX TEMP:  61; 6HR PCP:  0.01;

MORRIS*        CLOUDY    61  57  87 CALM      29.94F
ROMEOVILLE*    PTSUNNY   61  59  92 W6        29.95F
NORTHERLY ISL    N/A     59  53  80 SW9         N/A
$$

LMZ740>746-211900-
SOUTHERN LAKE MICHIGAN

STATION/POSITION SKY/WX   TEMP    WIND        PRES    VSBY  WAVE
                          AIR SEA DIR/SP/G                  HT/PER
                          (F)     (DEG/KT/KT) (MB)    (MI)  (FT/S)
HARRISON CRIB              58     210/  9/ 11   N/A
BURNHAM HARBOR             60     210/  6/ 10   N/A
CALUMET HARBOR             60     190/  7/ 10 1013.3F
BURNS HARBOR               59     190/ 10/ 12 1014.6F
MICHIGAN CITY              50     220/  6/  8   N/A
$$

ILZ025>027-034>036-040-047-049-050-058-095>099-211900-
WEST-CENTRAL ILLINOIS

CITY           SKY/WX    TMP DP  RH WIND       PRES   REMARKS
QUINCY         CLOUDY    62  58  86 N5        29.95F
GALESBURG*     CLOUDY    60  53  78 CALM      29.95F
MACOMB*        CLOUDY    58  58  97 N3        29.98F
JACKSONVILLE*  CLOUDY    62  58  87 E3        29.95S
PITTSFIELD*    CLOUDY    63  59  87 NE5       29.96S
$$

ILZ028>032-037-038-041>044-048-051>054-059>061-211900-
CENTRAL ILLINOIS

CITY           SKY/WX    TMP DP  RH WIND       PRES   REMARKS
PONTIAC        MOSUNNY   65  60  86 S7        29.95F
BLOOMINGTON    PTSUNNY   61  56  83 S8        29.96F
DECATUR        CLOUDY    59  54  83 CALM      29.96R
PEORIA         PTSUNNY   66  58  75 VRB3      29.95S
6HR MIN TEMP:  56; 6HR MAX TEMP:  66; 6HR PCP:  0.01;

LACON*         CLOUDY    59  57  94 W6        29.95F FOG
LINCOLN*       CLOUDY    63  59  87 CALM      29.95F
SPRINGFIELD    CLOUDY    62  59  90 E5        29.95F
6HR MIN TEMP:  56; 6HR MAX TEMP:  62; 6HR PCP:  0.03;

TAYLORVILLE    CLOUDY    58  56  90 CALM      29.95F
6HR MIN TEMP:  55; 6HR MAX TEMP:  59; 6HR PCP:  0.06;

$$

ILZ033-039-045-046-055>057-062-063-211900-
EAST-CENTRAL ILLINOIS

CITY           SKY/WX    TMP DP  RH WIND       PRES   REMARKS
CHAMPAIGN      CLOUDY    59  53  80 CALM      29.95F
RANTOUL*       CLOUDY    60  57  89 CALM      29.95F
MATTOON        CLOUDY    58  55  90 SE7       29.94F
PARIS*         DRIZZLE   57  54  88 S5        29.97F
$$

ILZ079-100>102-211900-
SOUTHWEST ILLINOIS

CITY           SKY/WX    TMP DP  RH WIND       PRES   REMARKS
ALTON          CLOUDY    61  57  88 E7        29.95S
BELLEVILLE     CLOUDY    60  60 100 CALM      29.91F
CAHOKIA*       CLOUDY    63  57  81 E6        29.92F
SPARTA*        DRIZZLE   59  54  83 E3        29.94F
$$

ILZ064>066-069>071-074>076-080>082-084>086-088>090-092>094-211900-
SOUTH-CENTRAL ILLINOIS

CITY           SKY/WX    TMP DP  RH WIND       PRES   REMARKS
CARBONDALE     CLOUDY    61  52  72 E3        29.92F
6HR MIN TEMP:  53; 6HR MAX TEMP:  62;

CAIRO*         CLOUDY    61  54  77 E5        29.91F
EFFINGHAM*     LGT RAIN  57  56  95 CALM      29.96F
MARION         CLOUDY    63  55  77 E6        29.94F
MT. VERNON     CLOUDY    60  51  72 NE3       29.94F
CENTRALIA*     RAIN      61  54  76 SE5       29.93F
SALEM*         LGT RAIN  60  53  78 E3        29.94F
METROPOLIS*    CLOUDY    63  54  72 CALM      29.93S
$$

ILZ067-068-072-073-078-083-087-091-211900-
SOUTHEAST ILLINOIS

CITY           SKY/WX    TMP DP  RH WIND       PRES   REMARKS
LAWRENCEVILLE  LGT RAIN  62  50  64 CALM      29.96F
FLORA*         RAIN      59  55  86 SE3       29.95F
FAIRFIELD*     CLOUDY    62  51  67 CALM      29.93F
HARRISBURG*    CLOUDY    62  53  72 E5        29.94F
ROBINSON*      LGT RAIN  58  51  77 CALM      29.96F
CARMI*         LGT RAIN  63  53  69 E6        29.94F
$$

ABBREVIATIONS USED IN REMARKS
   TC - TEMPERATURE IN CELSIUS
  WCI - WIND CHILL INDEX
   HX - HEAT INDEX
  VSB - VISIBILITY
$$





USA.gov is the U.S. government's official web portal to all federal, state and local government web resources and services.